Regional Weather Roundup
Issued by NWS

Home | Current Version | Previous Version | Graphics & Text | Print | Product List | Glossary On
Versions: 1 2 3 4 5 6 7 8 9 10 11 12 13 14 15 16 17 18 19 20 21 22 23 24 25 26 27 28 29 30 31 32 33 34 35 36 37 38 39 40 41 42 43 44 45 46 47 48 49 50
180
ASUS45 KSLC 270210
RWRUT

UTAH REGIONAL WEATHER ROUNDUP
NATIONAL WEATHER SERVICE SALT LAKE CITY UT
800 PM MDT SUN MAR 26 2017

UTZ001>011-023>025-270300-

NORTHERN UTAH

CITY           SKY/WX    TMP DP  RH WIND       PRES   REMARKS
BRIGHAM CITY     N/A     50  33  51 E7        29.97F
HILL AFB       CLOUDY    48  27  43 NE3       29.97F
LOGAN          CLOUDY    51  31  46 E6        29.97F
OGDEN          CLOUDY    48  32  53 NE3       29.97S
SALT LAKE CITY CLOUDY    52  30  43 S7        29.97S
WENDOVER       CLOUDY    52  35  52 SE17      29.91F
HEBER CITY     MOCLDY    45  25  45 SW8       29.98R

$$

UTZ011>015-024>027-270300-

CENTRAL/NORTHEAST UTAH

CITY           SKY/WX    TMP DP  RH WIND       PRES   REMARKS
PROVO AIRPORT  CLOUDY    51  28  41 CALM      30.01R
MOAB/CANYONLAN CLOUDY    55  23  28 N5        29.91F
DELTA          CLOUDY    48  34  57 SE3       29.98F
PRICE          PTCLDY    49  21  33 SE3       29.95S
RICHFIELD      CLOUDY    48  32  53 NE3       30.02R
ROOSEVELT      CLEAR     52  30  43 CALM      29.96F
VERNAL         CLOUDY    50  28  42 CALM      29.94F

$$

UTZ013>016-019>022-027-270300-

SOUTHERN UTAH

CITY           SKY/WX    TMP DP  RH WIND       PRES   REMARKS
BRYCE CANYON   PTCLDY    42  24  49 W6        30.04R
CEDAR CITY     CLOUDY    50  33  52 SW9       29.99S
MILFORD        CLOUDY    51  35  54 S5        29.97S
ST GEORGE      MOCLDY    64  31  28 W7        29.94S
HANKSVILLE     MOCLDY    55  23  28 E5        29.94S
KANAB          CLEAR     52  28  40 W3        30.03S
BLANDING       CLOUDY    50  25  36 SW6       30.04F

$$

REGIONAL REPORTS     COLORADO/ARIZONA

CITY           SKY/WX    TMP DP  RH WIND       PRES   REMARKS
CRAIG, CO      CLOUDY    41  24  51 SW6       29.97R
GRAND JUNCTION CLOUDY    53  26  35 NW7       29.93S
RIFLE, CO      CLEAR     52  25  35 W8        29.94S
MONTROSE, CO   CLOUDY    50  35  56 SE8       29.99S
CORTEZ, CO     CLOUDY    49  33  54 S5        30.00R
COLORADO CITY    N/A     55  32  41 NW5       30.02S
PAGE, AZ       MOCLDY    61  36  39 NW5       29.95R
GRAND CANYON   PTCLDY    41  30  65 CALM      30.06R
KINGMAN, AZ    CLEAR     62  17  17 SW10      29.97R
FLAGSTAFF, AZ  PTCLDY    45  25  45 S7        30.06R

$$

REGIONAL REPORTS    NEVADA/IDAHO/WYOMING

CITY           SKY/WX    TMP DP  RH WIND       PRES   REMARKS
LAS VEGAS, NV  MOCLDY    72  29  20 E9        29.86S
ELY, NY        CLOUDY    47  32  56 S7        29.97
ELKO, NV       MOCLDY    47  31  53 SW8       29.92F
POCATELLO, ID  CLOUDY    43  39  86 W9        29.96R
BURLEY, ID     CLOUDY    44  36  73 NE3       29.93F
FORT BRIDGER,  MOCLDY    39  25  58 W10       30.02R WCI  32
EVANSTON, WY   CLOUDY    38  24  57 W9        30.00R WCI  31
ROCK SPRINGS,  CLOUDY    42  22  44 W10       29.96S
KEMMERER, WY     N/A     34  27  75 NW8       30.00R WCI  27

$$




USA.gov is the U.S. government's official web portal to all federal, state and local government web resources and services.